Total_Precipitation_Accumulation
0.11 0.21 0.38 0.39 0.42 0.35 0.22 0.17 0.14 0.12 0.13 0.12 0.11 0.11 0.11 0.11 0.11 0.09 0.07 0.07 0.08 0.07 0.06 0.06 0.08 0.08 0.06 0.05 0.04 0.03 0.05 0.13 0.21 0.29 0.34 0.49 0.58 0.60 0.65 0.75 0.69 0.55 0.54 0.69
0.06 0.13 0.16 0.14 0.16 0.17 0.15 0.16 0.15 0.10 0.10 0.08 0.08 0.08 0.07 0.07 0.06 0.06 0.06 0.05 0.05 0.04 0.04 0.03 0.03 0.05 0.04 0.03 0.03 0.03 0.05 0.10 0.17 0.26 0.40 0.49 0.59 0.57 0.61 0.72 0.78 0.74 0.68 0.78
0.04 0.05 0.03 0.05 0.06 0.08 0.11 0.15 0.15 0.12 0.08 0.06 0.05 0.04 0.03 0.03 0.03 0.02 0.03 0.04 0.04 0.03 0.02 0.01 0.02 0.02 0.04 0.04 0.04 0.05 0.09 0.18 0.32 0.49 0.66 0.66 0.67 0.66 0.68 0.69 0.76 0.80 0.87 0.95
0.00 0.00 0.01 0.02 0.05 0.09 0.14 0.09 0.08 0.09 0.09 0.08 0.08 0.09 0.04 0.04 0.04 0.03 0.03 0.04 0.05 0.04 0.02 0.01 0.02 0.03 0.04 0.06 0.09 0.14 0.27 0.43 0.63 0.87 1.01 0.98 0.98 0.99 0.83 0.75 0.68 0.63 0.66 0.78
0.00 0.00 0.00 0.00 0.02 0.04 0.06 0.05 0.06 0.07 0.08 0.06 0.04 0.06 0.05 0.07 0.10 0.08 0.06 0.05 0.04 0.04 0.03 0.03 0.05 0.06 0.09 0.14 0.22 0.35 0.55 0.83 1.05 1.21 1.26 1.29 1.21 1.06 0.84 0.64 0.59 0.54 0.55 0.52
0.00 0.00 0.00 0.00 0.00 0.01 0.02 0.05 0.07 0.08 0.10 0.07 0.04 0.08 0.12 0.13 0.13 0.10 0.07 0.05 0.03 0.03 0.04 0.07 0.10 0.13 0.19 0.26 0.39 0.55 0.73 0.98 1.11 1.17 1.21 1.26 1.28 1.19 0.98 0.80 0.68 0.57 0.49 0.43
0.00 0.00 0.00 0.00 0.00 0.01 0.02 0.06 0.12 0.13 0.16 0.14 0.11 0.19 0.24 0.17 0.11 0.08 0.08 0.06 0.05 0.07 0.11 0.17 0.24 0.33 0.39 0.45 0.52 0.63 0.73 0.88 0.95 0.96 1.04 1.11 1.08 1.02 0.95 0.83 0.65 0.49 0.39 0.35
0.00 0.00 0.00 0.00 0.00 0.01 0.01 0.05 0.17 0.21 0.20 0.20 0.20 0.36 0.38 0.25 0.17 0.13 0.10 0.08 0.12 0.19 0.28 0.40 0.51 0.55 0.57 0.57 0.55 0.57 0.63 0.71 0.70 0.70 0.72 0.81 0.82 0.76 0.70 0.59 0.50 0.41 0.34 0.29
0.00 0.00 0.00 0.00 0.00 0.01 0.02 0.06 0.11 0.22 0.19 0.19 0.27 0.48 0.47 0.28 0.21 0.15 0.14 0.15 0.22 0.34 0.49 0.67 0.80 0.86 0.84 0.72 0.60 0.52 0.51 0.52 0.51 0.52 0.53 0.57 0.57 0.54 0.49 0.41 0.36 0.34 0.29 0.22
0.02 0.01 0.00 0.00 0.00 0.01 0.05 0.10 0.19 0.35 0.39 0.32 0.37 0.56 0.55 0.39 0.30 0.25 0.26 0.34 0.46 0.63 0.83 1.02 1.22 1.28 1.17 0.89 0.71 0.55 0.47 0.43 0.42 0.42 0.42 0.44 0.43 0.41 0.38 0.33 0.31 0.27 0.24 0.20
0.02 0.04 0.01 0.01 0.03 0.05 0.11 0.19 0.27 0.40 0.47 0.55 0.63 0.75 0.65 0.59 0.54 0.50 0.54 0.67 0.77 0.95 1.12 1.23 1.31 1.31 1.08 0.85 0.65 0.51 0.44 0.40 0.40 0.42 0.42 0.42 0.39 0.35 0.32 0.31 0.27 0.22 0.20 0.17
0.03 0.06 0.06 0.03 0.07 0.12 0.24 0.38 0.52 0.74 0.71 0.68 0.83 0.91 0.72 0.65 0.71 0.71 0.78 0.80 0.81 0.87 0.91 0.96 0.90 0.89 0.81 0.75 0.62 0.51 0.47 0.48 0.48 0.51 0.49 0.44 0.40 0.36 0.34 0.31 0.25 0.20 0.15 0.11
0.12 0.19 0.17 0.12 0.23 0.31 0.40 0.44 0.48 0.59 0.66 0.69 0.88 0.98 0.66 0.60 0.64 0.79 0.93 0.95 0.96 0.94 0.79 0.75 0.73 0.71 0.68 0.66 0.58 0.58 0.58 0.60 0.62 0.62 0.57 0.49 0.43 0.37 0.36 0.30 0.23 0.19 0.13 0.11
0.16 0.25 0.27 0.28 0.35 0.42 0.50 0.48 0.41 0.47 0.68 0.74 0.88 0.84 0.68 0.63 0.62 0.73 0.86 0.92 0.84 0.76 0.68 0.64 0.62 0.61 0.63 0.59 0.55 0.55 0.54 0.62 0.74 0.82 0.75 0.66 0.53 0.43 0.38 0.30 0.23 0.19 0.15 0.13
0.07 0.10 0.13 0.13 0.15 0.23 0.43 0.54 0.52 0.48 0.51 0.67 0.71 0.63 0.57 0.53 0.59 0.63 0.65 0.60 0.50 0.45 0.43 0.45 0.44 0.40 0.37 0.34 0.34 0.35 0.42 0.55 0.73 0.90 0.92 0.80 0.61 0.47 0.39 0.33 0.26 0.20 0.18 0.16
0.02 0.02 0.02 0.03 0.06 0.15 0.29 0.40 0.42 0.38 0.36 0.43 0.49 0.48 0.40 0.37 0.42 0.43 0.44 0.39 0.36 0.32 0.28 0.27 0.25 0.24 0.24 0.21 0.18 0.19 0.26 0.41 0.67 0.92 0.91 0.69 0.52 0.41 0.36 0.35 0.33 0.27 0.23 0.21
0.00 0.01 0.02 0.03 0.03 0.10 0.30 0.36 0.34 0.33 0.25 0.25 0.30 0.31 0.27 0.28 0.35 0.35 0.37 0.38 0.28 0.21 0.19 0.20 0.20 0.20 0.19 0.18 0.17 0.18 0.25 0.37 0.53 0.63 0.59 0.49 0.38 0.35 0.39 0.41 0.34 0.31 0.29 0.27
0.00 0.03 0.06 0.06 0.08 0.28 0.57 0.52 0.44 0.40 0.22 0.15 0.15 0.16 0.19 0.28 0.30 0.30 0.29 0.28 0.27 0.17 0.11 0.11 0.12 0.13 0.15 0.16 0.19 0.22 0.26 0.33 0.38 0.40 0.39 0.34 0.30 0.31 0.33 0.35 0.33 0.39 0.43 0.40
0.04 0.11 0.14 0.15 0.19 0.41 0.54 0.49 0.49 0.48 0.33 0.13 0.09 0.10 0.09 0.09 0.10 0.11 0.12 0.10 0.10 0.07 0.04 0.03 0.03 0.03 0.05 0.05 0.06 0.08 0.10 0.12 0.12 0.12 0.13 0.12 0.11 0.13 0.14 0.15 0.22 0.32 0.39 0.41
0.08 0.13 0.19 0.21 0.28 0.42 0.36 0.23 0.25 0.37 0.43 0.12 0.05 0.04 0.02 0.01 0.03 0.05 0.06 0.06 0.02 0.01 0.01 0.00 0.00 0.00 0.00 0.00 0.00 0.00 0.00 0.01 0.01 0.01 0.01 0.01 0.01 0.02 0.03 0.05 0.08 0.15 0.19 0.23
0.05 0.11 0.17 0.24 0.42 0.63 0.45 0.25 0.23 0.39 0.39 0.09 0.03 0.01 0.00 0.00 0.00 0.01 0.04 0.05 0.02 0.00 0.00 0.00 0.00 0.00 0.00 0.00 0.00 0.00 0.00 0.00 0.00 0.00 0.00 0.00 0.00 0.00 0.01 0.01 0.03 0.06 0.07 0.12
0.07 0.11 0.16 0.30 0.59 0.82 0.64 0.41 0.34 0.26 0.11 0.03 0.01 0.00 0.00 0.00 0.00 0.01 0.02 0.03 0.02 0.00 0.00 0.00 0.00 0.00 0.00 0.00 0.00 0.00 0.00 0.00 0.00 0.00 0.00 0.00 0.00 0.00 0.00 0.01 0.01 0.02 0.02 0.05
0.02 0.04 0.08 0.21 0.45 0.52 0.46 0.35 0.24 0.17 0.07 0.01 0.00 0.00 0.00 0.00 0.00 0.00 0.01 0.01 0.01 0.00 0.00 0.00 0.00 0.00 0.00 0.00 0.00 0.00 0.00 0.00 0.00 0.00 0.00 0.00 0.00 0.00 0.01 0.01 0.01 0.02 0.03 0.04
0.00 0.00 0.01 0.03 0.09 0.15 0.18 0.18 0.11 0.08 0.05 0.01 0.00 0.00 0.00 0.00 0.00 0.00 0.01 0.01 0.01 0.00 0.00 0.00 0.00 0.00 0.00 0.00 0.00 0.00 0.00 0.00 0.00 0.00 0.00 0.00 0.01 0.01 0.01 0.02 0.03 0.03 0.03 0.05
0.01 0.01 0.01 0.01 0.01 0.02 0.06 0.08 0.07 0.04 0.02 0.00 0.00 0.00 0.00 0.00 0.00 0.00 0.01 0.01 0.01 0.00 0.00 0.00 0.00 0.00 0.00 0.00 0.00 0.00 0.00 0.00 0.00 0.00 0.00 0.00 0.00 0.01 0.01 0.01 0.01 0.02 0.02 0.04
0.00 0.01 0.01 0.01 0.00 0.01 0.03 0.04 0.03 0.02 0.01 0.00 0.00 0.00 0.00 0.00 0.00 0.00 0.00 0.01 0.00 0.00 0.00 0.00 0.00 0.00 0.00 0.00 0.00 0.00 0.00 0.00 0.00 0.00 0.00 0.00 0.00 0.01 0.01 0.01 0.00 0.01 0.02 0.05